Flag for Canada Weather past 2 weeks in Waterloo, Ontario, Canada

Now
37 °F

Mostly cloudy.


Feels Like: 30 °F
Forecast: 36 / 50 °F
Wind: 12 mph from Northwest

Location: Waterloo Well

Current Time: Apr 27, 2015 at 8:40:50 AM

Latest Report: Apr 27, 2015 at 8:00 AM


Visibility: 9 mi

Pressure: 29.87 "Hg

Humidity: 87%

Dew point: 34 °F

Location of WaterlooLocation

Historic Weather in Waterloo — Graph

°F

Waterloo temperature yesterday

Maximum temperature yesterday: 52 °F (at 3:00 PM)
Minimum temperature yesterday: 30 °F (at 7:00 AM)
Average temperature yesterday: 42 °F

Past Weeks' High & Low Weather Summary

 TemperatureHumidityPressure
High72 °F (Apr 13, 1:00 PM)100% (Apr 17, 3:00 AM)30.41 "Hg (Apr 17, 3:00 AM)
Low25 °F (Apr 25, 5:00 AM)19% (Apr 18, 3:00 PM)29.34 "Hg (Apr 20, 5:00 PM)
Average45 °F66%29.93 "Hg
* Reported Apr 12 7:00 AM — Apr 27 7:00 AM, Waterloo, Weather by CustomWeather, © 2015

Note: Actual official high and low records may vary slightly from our data, if they occured in-between our weather recording intervals... More about our weather records

Advertising

Waterloo weather history for previous 24 hours

 ConditionsComfort  
Time TempWeatherWind HumidityBarometerVisibility
7:00 AM
Mon, Apr 27
36 °FLight rain. Mostly cloudy.13 mph93%29.85 "Hg9 mi
6:53 AM36 °FLight rain. Mostly cloudy.10 mph93%29.85 "Hg9 mi
6:00 AM37 °FLight rain. Mostly cloudy.13 mph87%29.84 "Hg9 mi
5:56 AM37 °FLight rain. Mostly cloudy.10 mph87%29.84 "Hg9 mi
5:01 AM37 °FLight rain. Overcast.12 mph87%29.83 "Hg9 mi
4:00 AM39 °FPassing clouds.9 mph81%29.82 "Hg9 mi
3:00 AM39 °FOvercast.9 mph81%29.82 "Hg9 mi
2:00 AM39 °FOvercast.10 mph81%29.83 "Hg9 mi
1:00 AM39 °FOvercast.9 mph81%29.84 "Hg9 mi
12:00 AM39 °FOvercast.8 mph81%29.84 "Hg9 mi
11:00 PM
Sun, Apr 26
41 °FOvercast.9 mph76%29.85 "Hg9 mi
10:00 PM43 °FOvercast.13 mph71%29.86 "Hg9 mi
9:00 PM43 °FOvercast.12 mph71%29.86 "Hg9 mi
8:00 PM45 °FOvercast.14 mph66%29.86 "Hg9 mi
7:00 PM46 °FOvercast.15 mph57%29.86 "Hg9 mi
6:00 PM48 °FMore clouds than sun.13 mph54%29.85 "Hg9 mi
5:00 PM52 °FSunny.21 mph47%29.83 "Hg9 mi
4:00 PM52 °FBroken clouds.20 mph47%29.83 "Hg9 mi
3:00 PM52 °FMore clouds than sun.15 mph50%29.84 "Hg9 mi
2:00 PM50 °FPartly sunny.17 mph50%29.84 "Hg9 mi
1:00 PM50 °FPartly sunny.13 mph50%29.85 "Hg9 mi
12:00 PM48 °FScattered clouds.13 mph54%29.86 "Hg9 mi
11:00 AM48 °FPassing clouds.13 mph50%29.87 "Hg9 mi
10:00 AM45 °FSunny.7 mph61%29.88 "Hg9 mi
9:00 AM43 °FSunny.6 mph61%29.88 "Hg9 mi
8:00 AM34 °FScattered clouds.5 mph87%29.88 "Hg9 mi
Weather by CustomWeather, © 2015

See weather overviewHow to use our weather pages